When you browse on this site, cookies collect data to enhance your experience and personalize the content and advertising you see.
Visit our Privacy Policy to learn more. By continuing to use the site, you agree to this use of cookies and data.
  • In Hungary
  • List of Countries
  • For 7 days
  • Water Temperature
  • Weather Map
  • News
  • Weather Widgets
  • user-avatar
    Login

    Hourly Weather Haskovo

    Today, 31 May, Sunday

    Time Temperature Precipitation Wind Pressure Humidity
    00:00 +13°C° 0 mm 1 mps 740 mmHg 85%
    01:00 +12°C° 0 mm 1 mps 740 mmHg 85%
    02:00 +12°C° 0 mm 1 mps 740 mmHg 86%
    03:00 +12°C° 0 mm 1 mps 739 mmHg 86%
    04:00 +11°C° 0 mm 1 mps 739 mmHg 86%
    05:00 +11°C° 0 mm 1 mps 739 mmHg 86%
    06:00 +13°C° 0 mm 1 mps 739 mmHg 81%
    07:00 +14°C° 0 mm 1 mps 739 mmHg 77%
    08:00 +16°C° 0 mm 1 mps 739 mmHg 72%
    09:00 +18°C° 0.3 mm 1 mps 739 mmHg 68%
    10:00 +20°C° 0.3 mm 1 mps 739 mmHg 64%
    11:00 +22°C° 0.3 mm 1 mps 739 mmHg 60%
    12:00 +21°C° 0.8 mm 2 mps 739 mmHg 61%
    13:00 +21°C° 0.8 mm 3 mps 739 mmHg 62%
    14:00 +21°C° 0.8 mm 4 mps 738 mmHg 63%
    15:00 +20°C° 0.9 mm 4 mps 738 mmHg 67%
    16:00 +20°C° 0.9 mm 4 mps 738 mmHg 71%
    17:00 +19°C° 0.9 mm 4 mps 738 mmHg 75%
    18:00 +18°C° 0.5 mm 3 mps 738 mmHg 79%
    19:00 +17°C° 0.5 mm 2 mps 737 mmHg 83%
    20:00 +15°C° 0.5 mm 2 mps 737 mmHg 87%
    21:00 +15°C° 0.1 mm 2 mps 738 mmHg 89%
    22:00 +14°C° 0.1 mm 1 mps 738 mmHg 90%
    23:00 +14°C° 0.1 mm 1 mps 738 mmHg 91%

    Tomorrow, 1 June, Monday

    Time Temperature Precipitation Wind Pressure Humidity
    00:00 +14°C° 0 mm 1 mps 738 mmHg 91%
    01:00 +13°C° 0 mm 1 mps 738 mmHg 91%
    02:00 +13°C° 0 mm 1 mps 737 mmHg 91%
    03:00 +13°C° 0 mm 1 mps 737 mmHg 91%
    04:00 +13°C° 0 mm 1 mps 737 mmHg 91%
    05:00 +12°C° 0 mm 1 mps 737 mmHg 91%
    06:00 +13°C° 0 mm 1 mps 737 mmHg 88%
    07:00 +14°C° 0 mm 1 mps 737 mmHg 85%
    08:00 +15°C° 0 mm 2 mps 738 mmHg 82%
    09:00 +15°C° 0.4 mm 2 mps 738 mmHg 80%
    10:00 +15°C° 0.4 mm 2 mps 738 mmHg 78%
    11:00 +16°C° 0.4 mm 2 mps 738 mmHg 76%
    12:00 +18°C° 0 mm 1 mps 737 mmHg 69%
    13:00 +20°C° 0 mm 1 mps 737 mmHg 62%
    14:00 +22°C° 0 mm 1 mps 737 mmHg 54%
    15:00 +22°C° 0.1 mm 1 mps 737 mmHg 56%
    16:00 +21°C° 0.1 mm 2 mps 736 mmHg 57%
    17:00 +21°C° 0.1 mm 2 mps 736 mmHg 58%
    18:00 +19°C° 0.2 mm 2 mps 736 mmHg 65%
    19:00 +17°C° 0.2 mm 2 mps 736 mmHg 71%
    20:00 +15°C° 0.2 mm 2 mps 736 mmHg 78%
    21:00 +15°C° 0.1 mm 1 mps 737 mmHg 79%
    22:00 +15°C° 0.1 mm 1 mps 737 mmHg 81%
    23:00 +14°C° 0.1 mm 1 mps 737 mmHg 82%

    Day after tomorrow, 2 June, Tuesday

    Time Temperature Precipitation Wind Pressure Humidity
    00:00 +14°C° 0 mm 1 mps 737 mmHg 84%
    01:00 +14°C° 0 mm 1 mps 737 mmHg 85%
    02:00 +13°C° 0 mm 1 mps 737 mmHg 86%
    03:00 +13°C° 0 mm 1 mps 737 mmHg 87%
    04:00 +13°C° 0 mm 1 mps 737 mmHg 88%
    05:00 +12°C° 0 mm 1 mps 737 mmHg 88%
    06:00 +13°C° 0 mm 2 mps 737 mmHg 85%
    07:00 +14°C° 0 mm 2 mps 737 mmHg 82%
    08:00 +15°C° 0 mm 2 mps 737 mmHg 79%
    09:00 +16°C° 0.1 mm 2 mps 738 mmHg 75%
    10:00 +17°C° 0.1 mm 2 mps 738 mmHg 71%
    11:00 +18°C° 0.1 mm 3 mps 738 mmHg 66%
    12:00 +19°C° 0.5 mm 3 mps 737 mmHg 66%
    13:00 +19°C° 0.5 mm 3 mps 737 mmHg 66%
    14:00 +19°C° 0.5 mm 3 mps 737 mmHg 66%
    15:00 +19°C° 1.1 mm 3 mps 737 mmHg 69%
    16:00 +18°C° 1.1 mm 3 mps 736 mmHg 72%
    17:00 +18°C° 1.1 mm 3 mps 736 mmHg 75%
    18:00 +16°C° 0.7 mm 3 mps 736 mmHg 80%
    19:00 +15°C° 0.7 mm 2 mps 736 mmHg 84%
    20:00 +14°C° 0.7 mm 2 mps 736 mmHg 88%
    21:00 +13°C° 0.2 mm 2 mps 737 mmHg 89%
    22:00 +13°C° 0.2 mm 1 mps 737 mmHg 90%
    23:00 +13°C° 0.2 mm 1 mps 737 mmHg 91%

    3 June, Wednesday

    Time Temperature Precipitation Wind Pressure Humidity
    00:00 +12°C° 0.1 mm 1 mps 737 mmHg 91%
    01:00 +12°C° 0.1 mm 1 mps 737 mmHg 92%
    02:00 +12°C° 0.1 mm 1 mps 736 mmHg 92%
    03:00 +11°C° 0.1 mm 1 mps 736 mmHg 93%
    04:00 +11°C° 0.1 mm 1 mps 736 mmHg 93%
    05:00 +11°C° 0.1 mm 1 mps 737 mmHg 93%
    06:00 +12°C° 0 mm 1 mps 737 mmHg 88%
    07:00 +13°C° 0 mm 2 mps 737 mmHg 82%
    08:00 +14°C° 0 mm 2 mps 737 mmHg 77%
    09:00 +16°C° 0 mm 2 mps 737 mmHg 69%
    10:00 +17°C° 0 mm 2 mps 737 mmHg 61%
    11:00 +19°C° 0 mm 2 mps 737 mmHg 53%
    12:00 +20°C° 0.1 mm 2 mps 737 mmHg 51%
    13:00 +20°C° 0.1 mm 2 mps 737 mmHg 48%
    14:00 +21°C° 0.1 mm 2 mps 736 mmHg 46%
    15:00 +21°C° 0.3 mm 2 mps 736 mmHg 50%
    16:00 +21°C° 0.3 mm 2 mps 736 mmHg 54%
    17:00 +21°C° 0.3 mm 2 mps 736 mmHg 58%
    18:00 +19°C° 0.1 mm 2 mps 736 mmHg 67%
    19:00 +17°C° 0.1 mm 2 mps 736 mmHg 76%
    20:00 +15°C° 0.1 mm 2 mps 736 mmHg 85%
    21:00 +15°C° 0 mm 2 mps 737 mmHg 86%
    22:00 +14°C° 0 mm 2 mps 737 mmHg 87%
    23:00 +14°C° 0 mm 2 mps 738 mmHg 88%

    4 June, Thursday

    Time Temperature Precipitation Wind Pressure Humidity
    00:00 +13°C° 0 mm 1 mps 737 mmHg 87%
    01:00 +13°C° 0 mm 1 mps 737 mmHg 87%
    02:00 +13°C° 0 mm 1 mps 737 mmHg 87%
    03:00 +12°C° 0 mm 1 mps 737 mmHg 87%
    04:00 +12°C° 0 mm 1 mps 737 mmHg 86%
    05:00 +12°C° 0 mm 1 mps 737 mmHg 86%
    06:00 +14°C° 0 mm 1 mps 738 mmHg 80%
    07:00 +16°C° 0 mm 1 mps 738 mmHg 74%
    08:00 +19°C° 0 mm 1 mps 738 mmHg 69%
    09:00 +21°C° 0 mm 1 mps 738 mmHg 62%
    10:00 +21°C° 0 mm 2 mps 739 mmHg 56%
    11:00 +24°C° 0 mm 2 mps 739 mmHg 50%
    12:00 +25°C° 0.1 mm 2 mps 739 mmHg 48%
    13:00 +26°C° 0.1 mm 2 mps 739 mmHg 46%
    14:00 +26°C° 0.1 mm 3 mps 739 mmHg 45%
    15:00 +26°C° 0 mm 3 mps 739 mmHg 50%
    16:00 +25°C° 0 mm 3 mps 738 mmHg 54%
    17:00 +25°C° 0 mm 3 mps 738 mmHg 59%
    18:00 +22°C° 0 mm 3 mps 738 mmHg 65%
    19:00 +20°C° 0 mm 3 mps 738 mmHg 71%
    20:00 +19°C° 0 mm 2 mps 738 mmHg 77%
    21:00 +18°C° 0 mm 2 mps 739 mmHg 78%
    22:00 +17°C° 0 mm 2 mps 739 mmHg 79%
    23:00 +16°C° 0 mm 1 mps 739 mmHg 80%

    5 June, Friday

    Time Temperature Precipitation Wind Pressure Humidity
    00:00 +16°C° 0 mm 1 mps 739 mmHg 80%
    01:00 +15°C° 0 mm 1 mps 739 mmHg 81%
    02:00 +15°C° 0 mm 1 mps 739 mmHg 82%
    03:00 +15°C° 0 mm 1 mps 739 mmHg 82%
    04:00 +14°C° 0 mm 1 mps 739 mmHg 82%
    05:00 +14°C° 0 mm 1 mps 739 mmHg 82%
    06:00 +16°C° 0 mm 1 mps 739 mmHg 77%
    07:00 +19°C° 0 mm 1 mps 740 mmHg 71%
    08:00 +21°C° 0 mm 1 mps 740 mmHg 66%
    09:00 +23°C° 0 mm 1 mps 740 mmHg 62%
    10:00 +24°C° 0 mm 2 mps 740 mmHg 58%
    11:00 +26°C° 0 mm 3 mps 740 mmHg 55%
    12:00 +27°C° 0 mm 3 mps 740 mmHg 53%
    13:00 +28°C° 0 mm 4 mps 740 mmHg 52%
    14:00 +29°C° 0 mm 5 mps 740 mmHg 51%
    15:00 +28°C° 0 mm 5 mps 739 mmHg 53%
    16:00 +28°C° 0 mm 5 mps 739 mmHg 56%
    17:00 +27°C° 0 mm 5 mps 739 mmHg 58%
    18:00 +25°C° 0 mm 4 mps 739 mmHg 64%
    19:00 +22°C° 0 mm 4 mps 739 mmHg 69%
    20:00 +21°C° 0 mm 3 mps 738 mmHg 74%
    21:00 +20°C° 0 mm 3 mps 739 mmHg 76%
    22:00 +19°C° 0 mm 2 mps 739 mmHg 78%
    23:00 +18°C° 0 mm 2 mps 739 mmHg 79%
    Show more